This demonstration page uses our WeatherBlox Daily Observations layout. Learn more.

Left ArrowRight Arrow

34.02893, -84.19858

Hourly Observations for August 6, 2020

Temp ( °F °C ) Dew Point ( °F °C ) Humidity (%) Winds ( mph kmh ) Pressure ( in mb ) Visibility ( mi km ) Precip ( " mm )
12:53 am 00:53 Clear 75 23.9 69 20.6 82 82 Calm 29.96 1015 10 16 0.00 0.00
1:53 am 01:53 Clear 73 22.8 70 21.1 90 90 Calm 29.96 1015 10 16 0.00 0.00
2:53 am 02:53 Clear 72 22.2 70 21.1 94 94 Calm 29.96 1015 10 16 0.00 0.00
3:53 am 03:53 Clear 71 21.7 69 20.6 94 94 NNE 3 6 29.96 1015 10 16 0.00 0.00
4:53 am 04:53 Clear 72 22.2 69 20.6 91 91 Calm 29.97 1015 10 16 0.00 0.00
5:53 am 05:53 Mostly Clear 71 21.7 69 20.6 94 94 VRB 3 6 29.98 1015 10 16 0.00 0.00
6:53 am 06:53 Mostly Cloudy 71 21.7 69 20.6 94 94 VRB 3 6 29.99 1016 10 16 0.00 0.00
7:53 am 07:53 Cloudy 71 21.7 69 20.6 94 94 Calm 30.00 1016 10 16 0.00 0.00
8:53 am 08:53 Sunny 73 22.8 70 21.1 90 90 Calm 30.01 1016 10 16 0.00 0.00
9:53 am 09:53 Partly Cloudy 79 26.1 72 22.2 79 79 VRB 5 7 30.02 1017 10 16 0.00 0.00
10:26 am 10:26 Mostly Cloudy 78 25.6 72 22.2 82 82 VRB 5 7 30.02 1017 10 16 0.00 0.00
10:35 am 10:35 Partly Cloudy 79 26.1 72 22.2 79 79 Calm 30.02 1017 10 16 0.00 0.00
10:53 am 10:53 Partly Cloudy 79 26.1 72 22.2 79 79 VRB 3 6 30.02 1017 10 16 0.00 0.00
10:56 am 10:56 Mostly Cloudy 80 26.7 72 22.2 76 76 VRB 3 6 30.02 1017 10 16 0.00 0.00
11:09 am 11:09 Mostly Cloudy 80 26.7 72 22.2 76 76 Calm 30.02 1017 10 16 0.00 0.00
11:34 am 11:34 Mostly Cloudy 83 28.3 73 22.8 72 72 VRB 3 6 30.02 1016 10 16 0.00 0.00
11:49 am 11:49 Partly Cloudy 82 28 73 23 74 74 VRB 3 6 30.02 1016 10 16 0.00 0.00
11:53 am 11:53 Partly Cloudy 84 28.9 73 22.8 70 70 VRB 5 7 30.01 1016 10 16 0.00 0.00
12:29 pm 12:29 Mostly Cloudy 84 28.9 73 22.8 70 70 VRB 5 7 29.99 1016 10 16 0.00 0.00
12:53 pm 12:53 Mostly Cloudy 86 30 73 22.8 65 65 VRB 3 6 29.99 1016 10 16 0.00 0.00
1:20 pm 13:20 Mostly Cloudy 86 30 73 22.8 65 65 Calm 29.98 1015 10 16 0.00 0.00
1:53 pm 13:53 Mostly Cloudy 87 30.6 73 22.8 63 63 Calm 29.98 1015 10 16 0.00 0.00
2:53 pm 14:53 Sunny 87 30.6 72 22.2 61 61 VRB 3 6 29.95 1014 10 16 0.00 0.00
3:53 pm 15:53 Partly Cloudy 88 31.1 70 21.1 55 55 VRB 3 6 29.93 1014 10 16 0.00 0.00
4:53 pm 16:53 Mostly Cloudy with Thunderstorms 85 29.4 70 21.1 61 61 SSE 6 9 29.94 1014 10 16 0.00 0.00
5:51 pm 17:51 Partly Cloudy with Nearby Thunderstorms 79 26 66 19 65 65 SE 6 9 29.94 1014 10 16 0.00 0.00
5:53 pm 17:53 Partly Cloudy with Nearby Thunderstorms 78 25.6 66 18.9 67 67 SE 5 7 29.94 1014 10 16 0.00 0.00
6:03 pm 18:03 Partly Cloudy 80 26.7 67 19.4 64 64 VRB 5 7 29.93 1014 10 16 0.00 0.00
6:53 pm 18:53 Sunny 85 29.4 69 20.6 59 59 Calm 29.93 1013 10 16 0.00 0.00
7:53 pm 19:53 Mostly Sunny 81 27.2 70 21.1 69 69 N 7 11 29.96 1014 10 16 0.00 0.00
8:53 pm 20:53 Mostly Clear 78 25.6 70 21.1 76 76 NNE 5 7 29.96 1015 10 16 0.00 0.00
9:53 pm 21:53 Mostly Clear 77 25 70 21.1 79 79 Calm 29.96 1015 10 16 0.00 0.00
10:53 pm 22:53 Mostly Cloudy 76 24.4 71 21.7 85 85 Calm 29.97 1015 10 16 0.00 0.00
11:53 pm 23:53 Cloudy 76 24.4 71 21.7 85 85 Calm 29.98 1015 10 16 0.00 0.00

Powered by AerisWeather